Overview Statistics Trail Chart Weather Telemetry Raw packets
 

This is the latest recevied weather packets stored in our database for station/object W4UWO. If no packets are shown the sender has not sent any weather packets the latest 10 day(s).

<< 51 52 53 54 55 56 57 >>
Time Temp. Humidity Pressure Rain* Wind** Luminosity Snow
1788274945 31.67° C 59% 1021.7 hPa 0 mm - 580 W/m² -
1788274643 32.22° C 59% 1021.7 hPa 0 mm - 566 W/m² -
1788274342 31.67° C 59% 1021.7 hPa 0 mm - 552 W/m² -
1788274038 31.11° C 61% 1021.6 hPa 0 mm - 536 W/m² -
1788273733 31.11° C 62% 1021.9 hPa 0 mm - 518 W/m² -
1788273428 30.56° C 63% 1021.8 hPa 0 mm - 501 W/m² -
1788273125 30.56° C 63% 1021.8 hPa 0 mm - 488 W/m² -
1788272821 30.56° C 63% 1021.7 hPa 0 mm - 473 W/m² -
1788272519 30.56° C 66% 1021.8 hPa 0 mm - 455 W/m² -
1788272215 30° C 66% 1021.9 hPa 0 mm - 438 W/m² -
1788271915 30° C 66% 1021.8 hPa 0 mm - 420 W/m² -
1788271614 29.44° C 69% 1021.9 hPa 0 mm - 404 W/m² -
1788271313 30° C 67% 1021.8 hPa 0 mm - 385 W/m² -
1788271008 30° C 67% 1021.9 hPa 0 mm - 370 W/m² -
1788270703 29.44° C 68% 1022 hPa 0 mm - 353 W/m² -
1788270399 29.44° C 69% 1022.1 hPa 0 mm - 334 W/m² -
1788270099 28.89° C 71% 1021.9 hPa 0 mm - 314 W/m² -
1788269798 28.89° C 72% 1021.9 hPa 0 mm - 82 W/m² -
1788269497 28.33° C 72% 1021.8 hPa 0 mm - 82 W/m² -
1788269192 28.33° C 72% 1021.9 hPa 0 mm - 206 W/m² -
1788268892 27.78° C 73% 1021.8 hPa 0 mm - 218 W/m² -
1788268592 27.22° C 76% 1021.8 hPa 0 mm - 83 W/m² -
1788268286 27.22° C 75% 1021.9 hPa 0 mm - 72 W/m² -
1788267981 27.22° C 76% 1021.9 hPa 0 mm - 196 W/m² -
1788267680 26.67° C 77% 1021.7 hPa 0 mm - 178 W/m² -

* Rain latest hour (hover to see other rain measurements)
** Current wind speed in m/s (hover to see current wind gust speed)